Location: Ngoneki
(0.9576°N, 10.6749°E)
Time: 18:06:06
(UTC+00:00)

Daily predictions for brighter satellites

Satellite Brightness Start Highest point End
(mag) Time Altitude Azimuth Time Altitude Azimuth Time Altitude Azimuth
NOSS 3-1 (A) 4.4 17:06:09 10° NNW 17:14:59 74° ENE 17:23:55 10° SSE
Cosmos 1697 Rocket 3.8 17:11:58 10° SSW 17:17:19 48° WNW 17:22:42 10° N
Meteor 2-21 Rocket 4.5 17:11:23 10° N 17:17:23 62° E 17:23:22 10° SSE
SMAP 3.2 17:13:31 10° S 17:18:10 84° WSW 17:22:49 10° NNW
Meteor 2-1 Rocket 4.2 17:15:51 10° S 17:21:23 66° E 17:26:51 10° NNE
Meteor 2-15 4.5 17:17:41 10° S 17:23:50 81° E 17:29:58 10° N
BLOCK DM-SL R/B 2.9 17:16:48 10° W 17:25:20 69° S 17:28:07 10° E
ARIANE 5 DEB (SYLDA) 3.2 17:19:34 10° W 17:25:51 80° S 17:28:17 10° E
ATLAS 5 CENTAUR R/B 0.2 17:24:53 10° NW 17:26:34 29° NNE 17:28:22 10° E
Sylda 4400 3.7 17:24:50 10° WSW 17:26:57 27° S 17:29:20 10° ESE
Cosmos 1892 4.3 17:25:30 10° NE 17:27:58 16° E 17:30:24 10° SE
NOAA 11 4.3 17:22:41 10° SSE 17:28:03 57° ENE 17:33:22 10° N
Okean-O 4.1 17:27:07 10° ESE 17:29:51 16° ENE 17:32:34 10° NE
USA 281 3.3 17:23:51 10° SSE 17:30:16 57° ENE 17:36:39 10° N
MOS 1 Rocket 3.8 17:27:06 10° NNE 17:32:04 50° ESE 17:37:15 10° S
COSMOS 2487 4.4 17:33:01 10° NW 17:36:07 33° WSW 17:39:14 10° SSW
Cosmos 1315 Rocket 3.2 17:34:40 10° SSW 17:38:33 65° W 17:42:25 10° N
Hubble Space Telescope 2.4 17:36:31 10° NNW 17:39:20 18° NNE 17:41:24 13° ENE
Cosmos 1980 Rocket 2.7 17:34:51 10° SSW 17:40:27 64° WNW 17:46:01 10° N
GPS 2-17 Rocket1 4.5 17:37:44 10° SW 17:41:34 26° SSE 17:45:01 11° ESE
Cosmos 2058 4.2 17:42:04 10° NE 17:45:06 20° E 17:48:09 10° SE
Sea Lan Dem Rocket 2.1 17:43:07 10° W 17:46:46 72° S 17:50:15 15° E
Ariane H10+ 2.2 17:45:03 10° W 17:48:38 87° N 17:57:36 14° E
SWIFT 4.1 17:46:26 10° NNW 17:49:22 18° NNE 17:51:02 15° NE
Cosmos 1346 Rocket 3.8 17:51:31 10° NNE 17:54:45 24° E 17:57:58 10° SE
CZ-2C R/B 3.9 17:50:15 10° SE 17:55:21 32° ENE 18:00:26 10° NNE
Cosmos 1340 2.5 17:54:19 10° N 17:58:04 76° E 18:01:50 10° S
SL-08 R/B 4.4 17:53:00 10° N 17:59:02 68° E 18:05:05 10° S
ARIANE 5 R/B 3.3 17:53:28 10° W 17:59:45 68° N 18:01:37 25° ENE
Cosmos 1455 4.3 17:59:05 10° SSW 18:02:21 29° W 18:05:37 10° NNW
Cosmos 1745 Rocket 4.2 17:58:02 10° NNE 18:04:07 49° E 18:10:14 10° SSE
Cosmos 2297 Rocket 2.8 18:01:36 10° NNE 18:06:35 32° ENE 18:11:33 10° SE
Cosmos 192 4.5 18:02:34 10° S 18:07:20 51° ESE 18:10:31 20° NNE
In-Cosmos 22 Rocket 4.1 18:03:10 10° N 18:08:42 87° E 18:14:24 10° S
Gbstr 26 Del rocket 4.4 18:01:49 10° NNW 18:09:30 77° NE 18:17:39 10° SE
Cosmos 2322 Rocket 2.6 18:07:38 10° S 18:12:54 39° ESE 18:14:49 30° ENE
Cosmos 1386 Rocket 4.5 18:09:01 10° N 18:15:10 60° E 18:21:14 10° SSE
USA 276 4.5 18:15:21 10° WNW 18:18:01 24° SW 18:20:43 10° S
H-2A R/B 2.5 18:17:16 10° SE 18:27:42 - N 18:22:03 38° E
ARIANE 5 DEB (SYLDA) 2.7 18:17:58 10° W 18:22:53 64° S 18:23:51 43° ESE
ARIANE 5 R/B 3.3 18:06:38 10° W 18:23:00 66° S 18:24:32 37° ESE
Cosmos-2242 3.4 18:23:09 10° SSW 18:27:20 61° W 18:31:31 10° N
YAOGAN 1 2.4 18:23:35 10° SSE 18:27:55 81° ENE 18:32:13 10° N
Cosmos 2315 Rocket 4.4 18:23:13 10° SSW 18:29:24 64° W 18:35:32 10° N
CZ-2C R/B 2.3 18:28:19 10° WSW 18:32:18 37° NW 18:33:07 33° N
Cosmos 1709 Rocket 4.2 18:27:45 10° NNE 18:33:48 47° E 18:39:49 10° SSE
Cosmos 1076 Rocket 3.7 18:35:01 54° SSE 18:35:01 54° SSE 18:38:28 10° S
GPS 2-12 Rocket1 4.3 18:30:20 10° NW 18:33:11 26° N 18:33:11 26° N
Centaur D-1AR AC-46 4.0 18:30:59 10° WSW 18:35:00 84° SSE 18:35:23 71° E
Helios 1A Rocket 4.2 18:34:32 10° S 18:38:28 41° WSW 18:42:21 10° NNW
Cosmos 2219 3.1 18:32:47 10° NNW 18:38:31 82° ENE 18:44:13 10° SSE
ARIANE 3 DEB 3.2 18:34:03 10° W 18:42:03 73° S 18:42:22 70° SE
CSL-04 Rocket 3.6 18:39:48 10° SSE 18:45:19 69° ENE 18:45:36 67° NE
Meteor 1-27 4.0 18:40:36 10° S 18:46:16 85° E 18:47:34 55° NNE
ARIANE 5 R/B 3.7 18:44:18 10° WNW 18:45:43 18° WNW 18:45:43 18° WNW
SL-16 R/B 2.6 18:43:47 10° SSW 18:49:21 60° WNW 18:51:58 31° N
Ariane H10-3 3.9 18:29:40 10° W 18:51:15 87° S 18:52:04 67° ESE
CZ-4 R/B 3.2 18:48:40 10° SSW 18:52:13 30° WSW 18:55:42 10° NW
CZ-2C R/B 3.4 18:52:18 18° N 18:55:59 49° WNW 19:01:02 10° SSW
DELTA 2 R/B (1) 3.6 18:52:26 10° SW 18:57:45 74° WNW 18:57:45 74° WNW
Ariane H10-3 3.0 18:37:17 10° W 18:59:26 84° S 19:00:01 73° ESE
Ariane H10-3 2.9 18:46:46 10° W 18:59:47 64° NNW 18:59:47 64° NNW
H-2A R/B 4.4 18:59:30 10° NNW 19:29:16 17° ESE 19:50:00 10° ESE
H-2A R/B 4.4 18:59:29 10° NNW 19:29:16 17° ESE 19:50:00 10° ESE
H-2A R/B 4.4 18:59:29 10° NNW 19:29:17 17° ESE 19:50:00 10° ESE
ATLAS 3B CENTAUR R/B 3.2 19:01:48 10° SW 19:07:46 62° SE 19:08:43 59° ESE
Cosmos 2227 Rocket 2.8 19:05:13 10° NNW 19:15:43 14° S 19:16:23 10° S
Cosmos 2360 Rocket 3.3 19:07:21 10° SSW 19:10:35 36° S 19:10:35 36° S
Hubble Space Telescope 3.7 19:16:24 10° WNW 19:16:48 12° WNW 19:16:48 12° WNW
